Cut Bank, MT

7:34 PM MDT on October 21, 2019 (GMT -0600)
Cut Bank Municipal

Weather History for KCTB - August, 2019

Change the Weather History Date:

Thursday, August 1, 2019

  Actual Average Record
Temperature  
Mean Temperature 75 °F 66 °F  
Max Temperature 93 °F 82 °F 95 °F (1914)
Min Temperature 56 °F 51 °F 37 °F (2002)
Degree Days  
Heating Degree Days 0 2  
Month to date heating degree days 0 2  
Since 1 June heating degree days 315 321  
Since 1 July heating degree days 93 88  
Cooling Degree Days 10 3  
Month to date cooling degree days 10 3  
Year to date cooling degree days 63 92  
Since 1 June cooling degree days 63 90  
Growing Degree Days 25 (Base 50)    
Moisture  
Dew Point 39 °F    
Average Humidity 29    
Maximum Humidity 62    
Minimum Humidity 11    
Precipitation  
Precipitation T in 0.04 in 0.88 in (1960)
Month to date precipitation T 0.04  
Year to date precipitation 7.41 7.51  
Snow  
Snow - - - ()
Snow Depth 0.00 in    
Sea Level Pressure  
Sea Level Pressure 29.90 in    
Wind  
Wind Speed 7 mph ()    
Max Wind Speed 23 mph    
Max Gust Speed 26 mph    
Visibility 10.0 miles    
Events      
T = Trace of Precipitation, MM = Missing Value Source: Averaged Metar Reports

Daily Weather History Graph

Daily Weather History Graph

Search for Another Location

Airport or City:

Astronomy

Aug. 01, 2019 Rise Set
Actual Time 6:03 AM MDT 9:07 PM MDT
Civil Twilight 5:26 AM MDT 9:44 PM MDT
Nautical Twilight 4:38 AM MDT 10:32 PM MDT
Astronomical Twilight 3:38 AM MDT 11:31 PM MDT
Moon 6:31 AM MDT (8/1) 9:54 PM MDT (8/1)
Length of Visible Light 16h 17m
Length of Day
15h 03m
New Moon, 1% of the Moon is Illuminated
Aug 1
New Moon
Aug 7
First Quarter
Aug 15
Full
Aug 23
Last Quarter
Aug 30
New

Hourly Weather History & Observations

Time (MDT) Temp. Dew Point Humidity Pressure Visibility Wind Dir Wind Speed Gust Speed Precip Events Conditions
12:56 AM 64.0 °F 46.0 °F 52% 29.91 in 10.0 mi East 3.5 mph - N/A   Scattered Clouds
1:56 AM 69.1 °F 46.9 °F 45% 29.89 in 10.0 mi SSW 8.1 mph - 0.00 in   Clear
2:56 AM 68.0 °F 46.9 °F 47% 29.89 in 10.0 mi SSW 10.4 mph - N/A   Clear
3:56 AM 69.1 °F 45.0 °F 42% 29.89 in 10.0 mi SW 10.4 mph - N/A   Clear
4:56 AM 66.9 °F 44.1 °F 44% 29.89 in 10.0 mi South 5.8 mph - N/A   Clear
5:56 AM 57.9 °F 44.1 °F 60% 29.92 in 10.0 mi West 8.1 mph - N/A   Clear
6:56 AM 61.0 °F 42.1 °F 50% 29.93 in 10.0 mi WNW 4.6 mph - N/A   Clear
7:56 AM 64.0 °F 46.0 °F 52% 29.93 in 10.0 mi Calm Calm - N/A   Clear
8:56 AM 72.0 °F 44.1 °F 37% 29.94 in 10.0 mi WNW 5.8 mph - N/A   Clear
9:56 AM 82.9 °F 42.1 °F 24% 29.93 in 10.0 mi WNW 10.4 mph - N/A   Clear
10:56 AM 87.1 °F 33.1 °F 15% 29.93 in - WNW 12.7 mph - N/A   Clear
11:56 AM 88.0 °F 28.0 °F 12% 29.93 in 10.0 mi WNW 10.4 mph - N/A   Clear
12:56 PM 88.0 °F 30.0 °F 12% 29.92 in 10.0 mi Calm Calm - N/A   Clear
1:56 PM 90.0 °F 33.1 °F 13% 29.89 in 10.0 mi North - - N/A   Scattered Clouds
2:56 PM 91.9 °F 35.1 °F 13% 29.89 in 10.0 mi SSW 11.5 mph - N/A   Clear
3:56 PM 91.0 °F 39.0 °F 16% 29.87 in 10.0 mi Calm Calm - N/A   Partly Cloudy
4:56 PM 88.0 °F 39.0 °F 18% 29.87 in 10.0 mi SSE 3.5 mph - N/A   Partly Cloudy
5:56 PM 93.0 °F 32.0 °F 12% 29.87 in 10.0 mi West 17.3 mph - N/A   Partly Cloudy
6:56 PM 89.1 °F 28.9 °F 12% 29.87 in 10.0 mi West 19.6 mph - N/A   Clear
7:56 PM 84.0 °F 35.1 °F 17% 29.88 in 10.0 mi West 17.3 mph - N/A   Clear
8:56 PM 79.0 °F 35.1 °F 20% 29.88 in 10.0 mi WNW 15.0 mph - N/A   Clear
9:56 PM 73.9 °F 36.0 °F 25% 29.89 in 10.0 mi WNW 12.7 mph - N/A   Clear
10:56 PM 69.1 °F 37.0 °F 31% 29.91 in 10.0 mi SSE 4.6 mph - N/A   Clear
11:56 PM 70.0 °F 37.9 °F 31% 29.93 in 10.0 mi South 3.5 mph - N/A   Clear